[Iaude] MPEC G91: 2024 GF1 [a=1.09,e=0.19,i=24.8,H=24.5]

mpec at cfa.harvard.edu mpec at cfa.harvard.edu
Mon Apr 8 05:07:41 EDT 2024


M.P.E.C. 2024-G91                                 Issued 2024 April 8, 09:06 UT

     The Minor Planet Electronic Circulars contain information on unusual
         minor planets, routine data on comets and natural satellites,
         and occasional editorial announcements.  They are published
    on behalf of Division F of the International Astronomical Union by the
          Minor Planet Center, Smithsonian Astrophysical Observatory,
                          Cambridge, MA 02138, U.S.A.
			  
             Prepared using the Tamkin Foundation Computer Network

                              MPC at CFA.HARVARD.EDU
            URL https://www.minorplanetcenter.net/    ISSN 1523-6714

                                    2024 GF1                                    


Observations:
     K24G01F*1C2024 04 04.34005513 46 23.941-14 44 13.02         21.58GVEG091G96
     K24G01F 1C2024 04 04.34561913 46 23.812-14 43 25.28         20.93GVEG091G96
     K24G01F 1C2024 04 04.35117313 46 23.696-14 42 36.83         21.43GVEG091G96
     K24G01F 1C2024 04 04.35673513 46 23.556-14 41 49.38         21.65GVEG091G96
     K24G01F KC2024 04 04.40305913 46 22.490-14 35 07.10         20.83GVEG091I52
     K24G01F KC2024 04 04.40848013 46 22.390-14 34 19.80         20.87GVEG091I52
     K24G01F KC2024 04 04.41390113 46 22.290-14 33 32.50         21.22GVEG091I52
     K24G01F KC2024 04 04.41931613 46 22.160-14 32 45.50               VEG091I52
     K24G01F KC2024 04 07.31679013 46 07.453-06 56 30.62         21.10GVEG091I52
     K24G01F KC2024 04 07.32066713 46 07.360-06 55 50.41         21.49GVEG091I52
     K24G01F KC2024 04 07.32261413 46 07.288-06 55 31.08         21.36GVEG091I52
     K24G01F  C2024 04 08.34509913 45 56.416-03 57 40.12         20.7 GVEG091H01
     K24G01F  C2024 04 08.35271613 45 56.174-03 56 18.69         20.8 GVEG091H01
     K24G01F  C2024 04 08.36049613 45 55.924-03 54 55.61         20.6 GVEG091H01
     K24G01F  C2024 04 08.36607613 45 55.743-03 53 55.97         20.7 GVEG091H01

Observer details:
G96 Mt. Lemmon Survey.  Observer G. J. Leonard.  Measurers T. Beuden, V. F.
    Carvajal, D. Fay, J. B. Fazekas, D. C. Fuls, A. R. Gibbs, A. D. Grauer, H.
    Groeller, J. K. Hogan, R. A. Kowalski, S. M. Larson, G. J. Leonard, D.
    Rankin, R. L. Seaman, F. C. Shelly, K. W. Wierzchos.  1.5-m reflector +
    10K CCD.
H01 Magdalena Ridge Observatory, Socorro.  Observers W. H. Ryan, E. V. Ryan.
    Measurer W. H. Ryan.  2.4-m f/8.9 Ritchey-Chretien + CCD.
I52 Steward Observatory, Mt. Lemmon Station.  Observers R. A. Kowalski, J. K.
    Hogan.  Measurers T. Beuden, V. F. Carvajal, D. Fay, J. B. Fazekas, D. C.
    Fuls, A. R. Gibbs, A. D. Grauer, H. Groeller, J. K. Hogan, R. A. Kowalski,
    S. M. Larson, G. J. Leonard, D. Rankin, R. L. Seaman, F. C. Shelly, K. W.
    Wierzchos.  1.0-m prime focus + CCD.

Orbital elements:
2024 GF1                                                 Earth MOID = 0.0263 AU
Epoch 2024 Mar. 31.0 TT = JDT 2460400.5                 MPC                     
M 257.98438              (2000.0)            P               Q                  
n   0.86724182     Peri.  117.11201     +0.68097706     +0.72099545             
a   1.0890368      Node   197.80303     -0.72652601     +0.68711954             
e   0.1859702      Incl.   24.79104     +0.09181617     +0.08962316             
P   1.14           H   24.51          G   0.15           U   8                  
Residuals in seconds of arc
240404 G96  0.0   0.3+    240404 I52  0.2-  0.2-    240407 I52  0.0   0.1-
240404 G96  0.0   0.1-    240404 I52  0.0   0.2-    240408 H01  0.0   0.0
240404 G96  0.2+  0.3+    240404 I52  0.2-  0.4-    240408 H01  0.0   0.0
240404 G96  0.0   0.4-    240407 I52  0.2-  0.3-    240408 H01  0.0   0.0
240404 I52  0.5-  0.3-    240407 I52  0.2+  0.4+    240408 H01  0.0   0.0

Ephemeris:
2024 GF1                 a,e,i = 1.09, 0.19, 25                  q = 0.8865
Date    TT    R. A. (2000) Decl.     Delta      r    Elong.  Phase     V
2024 03 09    13 33 49.6 -42 53 15   0.3444  1.2174   123.5    42.8    24.3
...
2024 03 24    13 44 15.9 -33 36 09   0.2269  1.1827   141.3    31.8    23.0
...
2024 04 01    13 46 18.4 -21 56 28   0.1750  1.1619   156.6    19.9    22.0
...
2024 04 07    13 46 09.7 -07 49 23   0.1466  1.1455   169.5     9.2    21.2
2024 04 08    13 46 00.5 -04 58 07   0.1432  1.1427   170.2     8.6    21.2
2024 04 09    13 45 49.3 -01 59 07   0.1402  1.1398   169.7     9.0    21.1
...
2024 04 15    13 44 08.6 +17 36 22   0.1326  1.1225   152.5    24.4    21.5
...
2024 04 23    13 41 05.0 +41 37 09   0.1485  1.0986   125.6    48.1    22.4
...
2024 05 08    13 36 06.7 +66 16 22   0.2201  1.0522    95.2    72.8    23.9

A. U. Tomatic                (C) Copyright 2024 MPC           M.P.E.C. 2024-G91





More information about the Iaude mailing list